Location: Tamazert
(32.6352°N, 5.2072°W)
Time: 17:03:04
(UTC+00:00)

Vanguard 3 - Pass Details

Date: 03 October 2022
Orbit: 509 x 3255 km, 33.3° (Epoch: 08 December)

Event Time Altitude Azimuth Distance (km) Brightness Sun altitude
Rises 11:31:39 0° 278° (W) 3,221 10.1 52.2°
Reaches altitude 10° 11:33:37 10° 278° (W) 2,495 9.6 52.3°
Maximum altitude 11:39:33 88° 191° (S) 1,224 9.1 52.6°
Drops below altitude 10° 11:50:29 10° 101° (ESE) 4,400 11.2 53.0°
Sets 11:55:03 0° 102° (ESE) 5,854 11.7 53.1°
